TimeEST,TemperatureF,Dew PointF,Humidity,Sea Level PressureIn,VisibilityMPH,Wind Direction,Wind SpeedMPH,Gust SpeedMPH,PrecipitationIn,Events,Conditions,WindDirDegrees,DateUTC
12:00 AM,28.4,24.8,86,29.46,0.8,WSW,13.8,21.9,0.00,Snow,Light Snow,240,2012-03-04 05:00:00
12:04 AM,28.4,24.8,86,29.46,0.5,SW,11.5,20.7,0.00,Fog-Snow,Snow,230,2012-03-04 05:04:00
12:12 AM,28.4,26.6,93,29.45,1.0,SW,11.5,-,0.00,Snow,Light Snow,230,2012-03-04 05:12:00
12:23 AM,28.4,26.6,93,29.45,1.5,SW,11.5,-,0.00,Snow,Light Snow,220,2012-03-04 05:23:00
12:51 AM,28.0,26.1,92,29.51,0.8,WSW,8.1,-,0.00,Snow,Light Snow,240,2012-03-04 05:51:00
12:58 AM,28.4,26.6,93,29.47,0.5,Variable,6.9,-,0.01,Fog-Snow,Snow,0,2012-03-04 05:58:00
1:11 AM,28.4,26.6,93,29.48,1.5,WSW,9.2,-,0.01,Snow,Light Snow,250,2012-03-04 06:11:00
1:25 AM,28.4,26.6,93,29.48,2.0,SW,10.4,-,0.01,Snow,Light Snow,230,2012-03-04 06:25:00
1:29 AM,28.4,26.6,93,29.48,3.0,SW,11.5,-,0.01,Snow,Light Snow,230,2012-03-04 06:29:00
1:34 AM,28.4,24.8,86,29.48,1.8,WSW,9.2,20.7,0.01,Snow,Light Snow,240,2012-03-04 06:34:00
1:51 AM,28.0,26.1,92,29.52,1.8,SW,9.2,-,0.01,Snow,Light Snow,230,2012-03-04 06:51:00
2:07 AM,28.4,26.6,93,29.49,0.8,WSW,8.1,-,0.01,Snow,Light Snow,240,2012-03-04 07:07:00
2:20 AM,28.4,26.6,93,29.49,1.0,WSW,9.2,18.4,0.01,Snow,Light Snow,240,2012-03-04 07:20:00
2:42 AM,28.4,24.8,86,29.48,2.5,WSW,11.5,18.4,0.01,Snow,Light Snow,240,2012-03-04 07:42:00
2:51 AM,28.0,25.0,88,29.52,5.0,WSW,11.5,18.4,0.01,Snow,Light Snow,240,2012-03-04 07:51:00
3:01 AM,28.4,24.8,86,29.48,3.0,SW,10.4,-,0.00,Snow,Light Snow,230,2012-03-04 08:01:00
3:08 AM,28.4,24.8,86,29.48,2.0,WSW,10.4,-,0.00,Snow,Light Snow,240,2012-03-04 08:08:00
3:12 AM,28.4,24.8,86,29.48,4.0,WSW,11.5,-,0.00,Snow,Light Snow,240,2012-03-04 08:12:00
3:22 AM,28.4,24.8,86,29.48,3.0,SW,11.5,-,0.00,Snow,Light Snow,230,2012-03-04 08:22:00
3:29 AM,28.4,24.8,86,29.48,4.0,SW,9.2,-,0.00,Snow,Light Snow,230,2012-03-04 08:29:00
3:44 AM,28.4,24.8,86,29.48,1.8,WSW,8.1,-,0.00,Snow,Light Snow,240,2012-03-04 08:44:00
3:51 AM,28.0,25.0,88,29.52,1.2,WSW,8.1,-,0.00,Snow,Light Snow,240,2012-03-04 08:51:00
4:07 AM,26.6,24.8,93,29.47,1.8,WSW,8.1,-,0.01,Snow,Light Snow,240,2012-03-04 09:07:00
4:13 AM,26.6,24.8,93,29.47,1.8,WSW,6.9,-,0.01,Snow,Light Snow,240,2012-03-04 09:13:00
4:22 AM,28.4,24.8,86,29.47,3.0,WSW,8.1,16.1,0.01,Snow,Light Snow,240,2012-03-04 09:22:00
4:32 AM,28.4,24.8,86,29.48,1.8,SW,10.4,18.4,0.01,Snow,Light Snow,230,2012-03-04 09:32:00
4:42 AM,28.4,24.8,86,29.48,3.0,WSW,9.2,-,0.01,Snow,Light Snow,240,2012-03-04 09:42:00
4:51 AM,28.0,24.1,85,29.53,4.0,WSW,10.4,-,0.01,Snow,Light Snow,240,2012-03-04 09:51:00
5:31 AM,26.6,24.8,93,29.48,2.5,WSW,6.9,-,0.00,Snow,Light Snow,250,2012-03-04 10:31:00
5:42 AM,26.6,24.8,93,29.49,1.2,WSW,6.9,-,0.00,Snow,Light Snow,240,2012-03-04 10:42:00
5:51 AM,27.0,24.1,89,29.54,1.5,SW,6.9,-,0.00,Snow,Light Snow,230,2012-03-04 10:51:00
6:05 AM,26.6,24.8,93,29.49,2.5,SW,6.9,-,0.00,Snow,Light Snow,230,2012-03-04 11:05:00
6:11 AM,26.6,24.8,93,29.49,1.8,WSW,8.1,-,0.00,Snow,Light Snow,240,2012-03-04 11:11:00
6:25 AM,26.6,24.8,93,29.49,3.0,WSW,6.9,-,0.00,Snow,Light Snow,240,2012-03-04 11:25:00
6:36 AM,26.6,24.8,93,29.49,2.5,Calm,Calm,-,0.00,Snow,Light Snow,0,2012-03-04 11:36:00
6:44 AM,26.6,24.8,93,29.50,0.8,Calm,Calm,-,0.01,Snow,Light Snow,0,2012-03-04 11:44:00
6:51 AM,27.0,25.0,92,29.55,0.8,Variable,3.5,-,0.01,Snow,Light Snow,0,2012-03-04 11:51:00
7:02 AM,26.6,23.0,86,29.50,1.0,WSW,6.9,-,0.00,Snow,Light Snow,250,2012-03-04 12:02:00
7:24 AM,26.6,23.0,86,29.50,2.5,WSW,4.6,-,0.00,Snow,Light Snow,240,2012-03-04 12:24:00
7:32 AM,26.6,23.0,86,29.50,5.0,WSW,3.5,-,0.00,Snow,Light Snow,240,2012-03-04 12:32:00
7:49 AM,26.6,24.8,93,29.50,4.0,SW,3.5,-,0.00,Snow,Light Snow,230,2012-03-04 12:49:00
7:51 AM,27.0,24.1,89,29.56,2.5,Calm,Calm,-,0.00,Snow,Light Snow,0,2012-03-04 12:51:00
7:57 AM,26.6,24.8,93,29.50,1.2,Calm,Calm,-,0.00,Snow,Light Snow,0,2012-03-04 12:57:00
8:06 AM,26.6,24.8,93,29.50,1.8,Calm,Calm,-,0.00,Snow,Light Snow,0,2012-03-04 13:06:00
8:13 AM,26.6,24.8,93,29.50,2.0,Calm,Calm,-,0.00,Snow,Light Snow,0,2012-03-04 13:13:00
8:16 AM,26.6,24.8,93,29.50,1.8,SW,3.5,-,0.00,Snow,Light Snow,230,2012-03-04 13:16:00
8:24 AM,26.6,23.0,86,29.50,1.2,WSW,4.6,-,0.00,Snow,Light Snow,250,2012-03-04 13:24:00
8:41 AM,26.6,23.0,86,29.50,2.5,West,4.6,-,0.00,Snow,Light Snow,260,2012-03-04 13:41:00
8:51 AM,27.0,23.0,85,29.55,2.5,West,4.6,-,0.00,Snow,Light Snow,260,2012-03-04 13:51:00
9:01 AM,26.6,23.0,86,29.50,1.8,West,5.8,-,0.00,Snow,Light Snow,260,2012-03-04 14:01:00
9:10 AM,26.6,21.2,80,29.50,2.5,West,6.9,-,0.00,Snow,Light Snow,270,2012-03-04 14:10:00
9:22 AM,26.6,21.2,80,29.50,4.0,West,6.9,-,0.00,Snow,Light Snow,270,2012-03-04 14:22:00
9:29 AM,26.6,21.2,80,29.50,9.0,WSW,5.8,-,0.00,,Overcast,240,2012-03-04 14:29:00
9:36 AM,26.6,21.2,80,29.50,10.0,Variable,5.8,-,0.00,,Overcast,0,2012-03-04 14:36:00
9:51 AM,27.0,21.0,78,29.56,10.0,WSW,8.1,-,0.00,,Overcast,240,2012-03-04 14:51:00
10:29 AM,28.4,19.4,69,29.49,10.0,West,9.2,17.3,N/A,,Overcast,260,2012-03-04 15:29:00
10:51 AM,28.0,19.9,72,29.55,10.0,Variable,6.9,-,N/A,,Overcast,0,2012-03-04 15:51:00
11:42 AM,28.4,19.4,69,29.50,10.0,WSW,9.2,-,N/A,,Overcast,240,2012-03-04 16:42:00
11:51 AM,28.0,19.0,69,29.55,10.0,WSW,13.8,18.4,N/A,,Overcast,250,2012-03-04 16:51:00
12:40 PM,26.6,17.6,69,29.49,10.0,West,11.5,18.4,0.00,,Overcast,270,2012-03-04 17:40:00
12:48 PM,26.6,15.8,64,29.49,10.0,Variable,6.9,18.4,0.00,,Overcast,0,2012-03-04 17:48:00
12:51 PM,27.0,17.1,66,29.55,10.0,West,8.1,18.4,0.00,,Overcast,280,2012-03-04 17:51:00
1:51 PM,26.1,16.0,66,29.54,5.0,West,10.4,18.4,0.00,Snow,Light Snow,260,2012-03-04 18:51:00
2:51 PM,25.0,16.0,69,29.54,7.0,SW,13.8,19.6,0.00,Snow,Light Snow,220,2012-03-04 19:51:00
3:51 PM,25.0,15.1,66,29.55,4.0,WSW,9.2,19.6,0.00,Snow,Light Snow,240,2012-03-04 20:51:00
4:16 PM,24.8,15.8,69,29.50,2.5,West,9.2,17.3,0.00,Snow,Light Snow,270,2012-03-04 21:16:00
4:19 PM,24.8,17.6,74,29.50,1.5,West,8.1,17.3,0.00,Snow,Light Snow,260,2012-03-04 21:19:00
4:30 PM,23.0,17.6,80,29.51,1.2,West,6.9,-,0.00,Snow,Light Snow,260,2012-03-04 21:30:00
4:38 PM,23.0,17.6,80,29.50,2.0,Variable,6.9,-,0.00,Snow,Light Snow,0,2012-03-04 21:38:00
4:46 PM,23.0,17.6,80,29.51,9.0,WSW,6.9,-,0.00,,Overcast,240,2012-03-04 21:46:00
4:51 PM,23.0,17.1,78,29.57,2.0,SW,8.1,-,0.00,Snow,Light Snow,230,2012-03-04 21:51:00
4:55 PM,23.0,17.6,80,29.51,0.8,SW,9.2,-,0.00,Snow,Light Snow,230,2012-03-04 21:55:00
5:05 PM,21.2,17.6,86,29.51,2.0,WSW,11.5,-,0.00,Snow,Light Snow,240,2012-03-04 22:05:00
5:12 PM,21.2,17.6,86,29.52,5.0,WSW,9.2,16.1,0.00,Snow,Light Snow,250,2012-03-04 22:12:00
5:23 PM,21.2,15.8,80,29.52,1.8,WSW,9.2,-,0.00,Snow,Light Snow,240,2012-03-04 22:23:00
5:29 PM,21.2,15.8,80,29.52,2.0,WSW,9.2,17.3,0.00,Snow,Light Snow,250,2012-03-04 22:29:00
5:37 PM,21.2,15.8,80,29.52,6.0,WSW,8.1,-,0.00,Snow,Light Snow,240,2012-03-04 22:37:00
5:51 PM,21.0,14.0,74,29.59,9.0,WSW,10.4,19.6,0.00,,Overcast,240,2012-03-04 22:51:00
6:32 PM,19.4,14.0,80,29.53,2.0,WSW,10.4,18.4,0.00,Snow,Light Snow,250,2012-03-04 23:32:00
6:35 PM,19.4,15.8,86,29.53,0.8,WSW,8.1,18.4,0.00,Snow,Light Snow,250,2012-03-04 23:35:00
6:40 PM,19.4,15.8,86,29.53,0.5,WSW,5.8,16.1,0.01,Fog-Snow,Snow,250,2012-03-04 23:40:00
6:48 PM,19.4,15.8,86,29.53,1.0,WSW,10.4,16.1,0.01,Snow,Light Snow,240,2012-03-04 23:48:00
6:51 PM,19.0,15.1,85,29.60,3.0,SW,11.5,16.1,0.01,Snow,Light Snow,230,2012-03-04 23:51:00
7:10 PM,19.4,12.2,74,29.53,10.0,SW,16.1,20.7,0.00,,Overcast,230,2012-03-05 00:10:00
7:23 PM,17.6,12.2,79,29.54,1.5,NNW,9.2,-,0.00,Snow,Light Snow,330,2012-03-05 00:23:00
7:28 PM,15.8,10.4,79,29.54,0.5,North,6.9,-,0.00,Fog-Snow,Snow,350,2012-03-05 00:28:00
7:30 PM,15.8,10.4,79,29.55,0.5,North,8.1,-,0.00,Snow,Snow,350,2012-03-05 00:30:00
7:51 PM,14.0,9.0,80,29.63,1.0,North,5.8,-,0.00,Snow,Light Snow,360,2012-03-05 00:51:00
8:05 PM,12.2,8.6,85,29.56,1.2,NNW,8.1,-,0.00,Snow,Light Snow,340,2012-03-05 01:05:00
8:47 PM,10.4,6.8,85,29.58,3.0,Variable,3.5,-,0.00,Snow,Light Snow,0,2012-03-05 01:47:00
8:48 PM,10.9,6.1,81,29.66,3.0,Variable,3.5,-,0.00,Snow,Light Snow,0,2012-03-05 01:48:00
9:51 PM,8.1,3.0,80,29.68,7.0,Variable,3.5,-,0.00,,Overcast,0,2012-03-05 02:51:00
10:51 PM,7.0,1.0,77,29.68,7.0,West,5.8,-,N/A,,Overcast,260,2012-03-05 03:51:00
11:32 PM,6.8,1.4,79,29.60,9.0,West,3.5,-,N/A,,Overcast,260,2012-03-05 04:32:00
11:51 PM,5.0,1.0,84,29.68,9.0,WSW,4.6,-,N/A,,Mostly Cloudy,250,2012-03-05 04:51:00